Location: Peterborough
(44.3091°N, 78.3197°W)
Time: 17:55:21
(UTC-04:00)

Transit 4A - Pass Details

Date: 24 March 2023
Orbit: 864 x 980 km, 66.8° (Epoch: 04 June)

Event Time Altitude Azimuth Distance (km) Brightness Sun altitude
Rises 10:27:25 0° 279° (W) 3,460 10.4 32.7°
Reaches altitude 10° 10:31:30 10° 307° (NW) 2,542 9.8 33.3°
Maximum altitude 10:34:05 13° 334° (NNW) 2,352 9.7 33.7°
Drops below altitude 10° 10:36:42 10° 0° (N) 2,575 10.0 34.1°
Sets 10:40:55 0° 28° (NNE) 3,547 10.8 34.7°
